This is the latest recevied weather packets stored in our database for station/object N3OZD-10. If no packets are shown the sender has not sent any weather packets the latest 10 day(s).
| Time | Temp. | Humidity | Pressure | Rain* | Wind** | Luminosity | Snow |
|---|---|---|---|---|---|---|---|
| 1778095642 | 20° C | 75% | 1007.3 hPa | 0 mm | - | - | - |
| 1778095342 | 20° C | 76% | 1007.2 hPa | 0 mm | - | - | - |
| 1778095043 | 20° C | 75% | 1007.4 hPa | 0 mm | - | - | - |
| 1778094742 | 19.44° C | 76% | 1007.4 hPa | 0 mm | - | - | - |
| 1778094442 | 19.44° C | 78% | 1007.6 hPa | 0 mm | - | - | - |
| 1778094143 | 19.44° C | 78% | 1007.6 hPa | 0 mm | - | - | - |
| 1778093842 | 19.44° C | 79% | 1007.9 hPa | 0 mm | - | - | - |
| 1778093543 | 18.89° C | 79% | 1007.9 hPa | 0 mm | - | - | - |
| 1778093244 | 18.89° C | 80% | 1007.9 hPa | 0 mm | - | - | - |
| 1778092942 | 18.33° C | 80% | 1007.7 hPa | 0 mm | - | - | - |
| 1778092646 | 18.33° C | 81% | 1007.9 hPa | 0 mm | - | - | - |
| 1778092342 | 18.89° C | 81% | 1007.9 hPa | 0 mm | - | - | - |
| 1778092042 | 18.33° C | 81% | 1007.9 hPa | 0 mm | - | - | - |
| 1778091742 | 18.33° C | 83% | 1007.7 hPa | 0 mm | - | - | - |
| 1778091442 | 18.33° C | 83% | 1008 hPa | 0 mm | - | - | - |
| 1778091142 | 17.78° C | 83% | 1008 hPa | 0 mm | - | - | - |
| 1778090842 | 17.78° C | 84% | 1008.1 hPa | 0 mm | - | - | - |
| 1778090544 | 17.78° C | 86% | 1008.2 hPa | 0 mm | - | - | - |
| 1778090242 | 17.22° C | 87% | 1008.2 hPa | 0 mm | - | - | - |
| 1778089943 | 17.22° C | 89% | 1008.1 hPa | 0 mm | - | - | - |
| 1778089644 | 17.78° C | 90% | 1008.1 hPa | 0 mm | - | - | - |
| 1778089344 | 17.22° C | 92% | 1008.2 hPa | 0 mm | - | - | - |
| 1778089042 | 16.67° C | 92% | 1008.2 hPa | 0 mm | - | - | - |
| 1778088742 | 16.67° C | 93% | 1008.2 hPa | 0 mm | - | - | - |
| 1778088442 | 16.67° C | 95% | 1008.2 hPa | 0 mm | - | - | - |
* Rain latest hour (hover to see other rain measurements)
** Current wind speed in m/s (hover to see current wind gust speed)